Flag for Sweden Weather past 2 weeks in Linköping, Sweden

Now
41 °F

Passing clouds.


Feels Like: 38 °F
Forecast: 34 / 46 °F
Wind: 5 mph from Northwest

Location: Linkoping / Saab

Current Time: Mar 5, 2015 at 1:13:48 PM

Latest Report: Mar 5, 2015 at 12:20 PM


Visibility: N/A

Pressure: 30.30 "Hg

Humidity: 66%

Dew point: 30 °F

Location of LinköpingLocation

Historic Weather in Linköping — Graph

°F

Linköping temperature yesterday

Maximum temperature yesterday: 41 °F (at 1:20 PM)
Minimum temperature yesterday: 32 °F (at 12:20 AM)
Average temperature yesterday: 35 °F

Past Weeks' High & Low Weather Summary

 TemperatureHumidityPressure
High45 °F (Feb 19, 9:20 AM)100% (Feb 20, 4:20 PM)30.30 "Hg (Feb 20, 4:20 PM)
Low28 °F (Feb 26, 7:50 AM)57% (Feb 28, 3:20 PM)29.15 "Hg (Feb 21, 10:50 PM)
Average36 °F86%29.67 "Hg
* Reported Feb 18 11:20 AM — Mar 5 11:50 AM, Linköping, Weather by CustomWeather, © 2015

Note: Actual official high and low records may vary slightly from our data, if they occured in-between our weather recording intervals... More about our weather records

Advertising

Linköping weather history for previous 24 hours

 ConditionsComfort  
Time TempWeatherWind HumidityBarometerVisibility
11:50 AM
Thu, Mar 5
39 °FPassing clouds.6 mph70%30.30 "HgN/A
11:20 AM37 °FPassing clouds.5 mph75%30.30 "HgN/A
10:50 AM37 °FPassing clouds.5 mph75%30.30 "HgN/A
10:20 AM36 °FSunny.6 mph81%30.27 "Hg10 mi
9:50 AM34 °FSunny.7 mph87%30.27 "Hg10 mi
9:20 AM34 °FPassing clouds.3 mph81%30.27 "HgN/A
8:50 AM32 °FSunny.3 mph87%30.24 "Hg10 mi
8:20 AM32 °FSunny.3 mph87%30.24 "Hg10 mi
7:50 AM30 °FSunny.2 mph93%30.21 "Hg10 mi
7:20 AM28 °FSunny.5 mph93%30.21 "Hg10 mi
6:50 AM28 °FSunny.2 mph93%30.21 "Hg10 mi
6:20 AM28 °FClear.3 mph93%30.21 "Hg10 mi
5:50 AM30 °FClear.3 mph86%30.18 "Hg10 mi
5:20 AM28 °FChilly.3 mph93%30.18 "HgN/A
4:20 AM28 °FChilly.5 mph93%30.15 "HgN/A
3:50 AM30 °FChilly.5 mph86%30.15 "HgN/A
2:50 AM30 °FChilly.6 mph86%30.12 "HgN/A
2:20 AM30 °FChilly.3 mph86%30.12 "HgN/A
1:50 AM32 °FPassing clouds.3 mph80%30.09 "HgN/A
1:20 AM32 °FPassing clouds.5 mph80%30.09 "HgN/A
12:50 AM32 °FPassing clouds.3 mph87%30.07 "HgN/A
11:50 PM
Wed, Mar 4
34 °FPassing clouds.5 mph81%30.07 "HgN/A
11:20 PM34 °FOvercast.6 mph81%30.04 "HgN/A
10:20 PM32 °FClear.2 mph80%30.04 "Hg10 mi
9:50 PM32 °FClear.3 mph80%30.01 "Hg10 mi
9:20 PM32 °FClear.6 mph80%30.01 "Hg10 mi
8:50 PM34 °FClear.7 mph75%29.98 "Hg10 mi
8:20 PM34 °FClear.9 mph75%29.98 "Hg10 mi
7:50 PM34 °FClear.8 mph70%29.98 "Hg10 mi
7:20 PM36 °FClear.8 mph65%29.95 "Hg10 mi
6:50 PM37 °FClear.9 mph60%29.95 "Hg10 mi
6:20 PM37 °FClear.8 mph60%29.92 "Hg10 mi
5:50 PM37 °FClear.9 mph60%29.92 "Hg10 mi
5:20 PM39 °FPassing clouds.8 mph61%29.89 "HgN/A
4:50 PM41 °FPassing clouds.9 mph57%29.89 "HgN/A
4:20 PM41 °FPassing clouds.10 mph61%29.89 "HgN/A
3:50 PM41 °FScattered clouds.12 mph61%29.86 "HgN/A
3:20 PM41 °FScattered clouds.9 mph61%29.86 "HgN/A
2:50 PM41 °FScattered clouds.12 mph61%29.83 "HgN/A
2:20 PM41 °FScattered clouds.13 mph61%29.83 "HgN/A
1:50 PM41 °FScattered clouds.14 mph61%29.83 "HgN/A
1:20 PM41 °FScattered clouds.12 mph66%29.80 "HgN/A
Weather by CustomWeather, © 2015

See weather overviewHow to use our weather pages